Find Starlink 34405

NORAD ID: 64704 Int'l Des: 2025-142 Owner: SPXS Country: US Constellation: starlink operational
LEOCIRCULAR

現在のビュー

3D地球を読み込み中...

About Starlink 34405

Starlink 34405 (NORAD 64704) is a starlink constellation satellite (v2 mini) launched Jun 28, 2025 by SPXS of US. It operates in LEO, CIRCULAR orbit with a mass of 575.00 kg.

Starlink 34405について

説明を読み込み中...

次回通過

Passes for default location (London). Set your location on the main map for personalized predictions.

高度履歴

Loading altitude history...

軌道要素

1 64704U 25142J 26193.53879306 -.00001496 00000-0 -11754-3 0 9990
2 64704 69.9994 359.6020 0002931 267.0937 92.9887 14.98338926 58192
Epoch: Jul 12, 2026 • Age: 3 hours

現在のステータス

高度 590.2 km
遠地点 / 近地点 N/A
速度 7.56 km/s
衛星直下点 -52.60°S, 162.28°E
打ち上げ日 Jun 28, 2025
運用期間 1 year
タイプ internet

技術仕様

分類 Payload
質量 575.00 kg
乾燥質量 530.00 kg
総質量 575.00 kg
長さ 0.30 m
直径 4.10 m
スパン 29.00 m
形状 Box + pan
製造者 SPXS
バスタイプ Starlink V2MO
フェーズステータス In Orbit
所有者/国 SPXS/US

Most Searched